Time,TemperatureF,DewpointF,PressureIn,WindDirection,WindDirectionDegrees,WindSpeedMPH,WindSpeedGustMPH,Humidity,HourlyPrecipIn,Conditions,Clouds,dailyrainin,SoftwareType,DateUTC
2013-02-12 00:00:00,44.3,39.2,30.09,ENE,68,1.0,3.0,82,0.00,,SKC,0.00,VWS V14.01,2013-02-12 06:00:00,
2013-02-12 00:30:00,44.2,39.4,30.05,NE,45,2.0,6.0,83,0.00,,SKC,0.00,VWS V14.01,2013-02-12 06:30:00,
2013-02-12 01:00:00,44.5,40.0,30.03,ENE,68,3.0,8.0,84,0.00,,SKC,0.00,VWS V14.01,2013-02-12 07:00:00,
2013-02-12 01:30:00,44.7,40.5,30.02,ENE,68,3.0,7.0,85,0.00,,SKC,0.00,VWS V14.01,2013-02-12 07:30:00,
2013-02-12 02:00:00,44.6,40.7,30.02,East,90,2.0,7.0,86,0.01,,SKC,0.01,VWS V14.01,2013-02-12 08:00:00,
2013-02-12 02:30:00,46.1,42.2,30.06,East,90,2.0,7.0,86,0.01,,SKC,0.01,VWS V14.01,2013-02-12 08:30:00,
2013-02-12 03:00:00,46.5,42.8,30.06,NNE,22,2.0,5.0,87,0.01,,SKC,0.01,VWS V14.01,2013-02-12 09:00:00,
2013-02-12 03:30:00,46.3,42.7,30.04,NE,45,1.0,5.0,87,0.00,,SKC,0.01,VWS V14.01,2013-02-12 09:30:00,
2013-02-12 04:00:00,46.0,43.0,30.01,NE,45,2.0,6.0,89,0.00,,SKC,0.01,VWS V14.01,2013-02-12 10:00:00,
2013-02-12 04:30:00,45.3,42.8,29.99,East,90,2.0,8.0,91,0.00,,SKC,0.01,VWS V14.01,2013-02-12 10:30:00,
2013-02-12 05:00:00,45.3,43.1,29.99,East,90,3.0,8.0,92,0.00,,SKC,0.01,VWS V14.01,2013-02-12 11:00:00,
2013-02-12 05:30:00,45.4,43.2,29.97,NE,45,2.0,8.0,92,0.00,,SKC,0.01,VWS V14.01,2013-02-12 11:30:00,
2013-02-12 06:00:00,45.4,43.5,29.93,NNE,22,3.0,10.0,93,0.00,,SKC,0.01,VWS V14.01,2013-02-12 12:00:00,
2013-02-12 06:30:00,45.5,43.6,29.97,East,90,3.0,13.0,93,0.00,,SKC,0.01,VWS V14.01,2013-02-12 12:30:00,
2013-02-12 07:00:00,45.9,44.3,29.93,East,79,7.0,8.0,94,0.01,,SKC,0.02,VWS V14.01,2013-02-12 13:00:00,
2013-02-12 07:21:00,45.4,43.8,29.95,ENE,65,2.0,5.0,94,0.00,,SKC,0.01,VWS V14.01,2013-02-12 13:21:00,
2013-02-12 07:27:00,45.4,43.8,29.95,ENE,63,2.0,5.0,94,0.00,,SKC,0.01,VWS V14.01,2013-02-12 13:27:00,
2013-02-12 07:30:00,45.4,43.8,29.94,ENE,70,1.0,7.0,94,0.00,,SKC,0.01,VWS V14.01,2013-02-12 13:30:00,
2013-02-12 07:33:00,45.4,43.8,29.95,ENE,69,2.0,4.0,94,0.01,,SKC,0.02,VWS V14.01,2013-02-12 13:33:00,
2013-02-12 07:39:00,45.5,43.9,29.94,East,86,2.0,7.0,94,0.01,,SKC,0.02,VWS V14.01,2013-02-12 13:39:00,
2013-02-12 07:45:00,45.7,44.1,29.94,East,90,7.0,8.0,94,0.01,,SKC,0.02,VWS V14.01,2013-02-12 13:45:00,
2013-02-12 07:51:00,45.8,44.2,29.95,East,96,0.0,8.0,94,0.01,,SKC,0.02,VWS V14.01,2013-02-12 13:51:00,
2013-02-12 07:57:00,45.8,44.2,29.93,East,98,2.0,8.0,94,0.01,,SKC,0.02,VWS V14.01,2013-02-12 13:57:00,
2013-02-12 08:00:00,45.9,44.3,29.93,East,79,7.0,8.0,94,0.01,,SKC,0.02,VWS V14.01,2013-02-12 14:00:00,
2013-02-12 08:03:00,45.9,44.3,29.93,ESE,103,7.0,8.0,94,0.01,,SKC,0.02,VWS V14.01,2013-02-12 14:03:00,
2013-02-12 08:09:00,46.0,44.4,29.92,ESE,111,4.0,12.0,94,0.01,,SKC,0.02,VWS V14.01,2013-02-12 14:09:00,
2013-02-12 08:15:00,46.2,44.6,29.93,East,80,2.0,12.0,94,0.01,,SKC,0.02,VWS V14.01,2013-02-12 14:15:00,
2013-02-12 08:21:00,46.2,44.6,29.93,ESE,103,2.0,12.0,94,0.01,,SKC,0.02,VWS V14.01,2013-02-12 14:21:00,
2013-02-12 08:27:00,46.3,44.7,29.93,NE,50,4.0,12.0,94,0.01,,SKC,0.02,VWS V14.01,2013-02-12 14:27:00,
2013-02-12 08:30:00,46.3,44.7,29.93,ENE,59,3.0,12.0,94,0.01,,SKC,0.02,VWS V14.01,2013-02-12 14:30:00,
2013-02-12 08:33:00,46.3,44.7,29.93,East,79,1.0,6.0,94,0.01,,SKC,0.02,VWS V14.01,2013-02-12 14:33:00,
2013-02-12 08:39:00,46.4,44.8,29.93,ENE,68,2.0,6.0,94,0.01,,SKC,0.02,VWS V14.01,2013-02-12 14:39:00,
2013-02-12 08:45:00,46.4,44.8,29.95,NNW,331,2.0,6.0,94,0.01,,SKC,0.02,VWS V14.01,2013-02-12 14:45:00,
2013-02-12 08:51:00,46.5,44.9,29.95,NNW,327,3.0,6.0,94,0.01,,SKC,0.02,VWS V14.01,2013-02-12 14:51:00,
2013-02-12 08:57:00,46.5,44.9,29.94,North,5,3.0,6.0,94,0.01,,SKC,0.02,VWS V14.01,2013-02-12 14:57:00,
2013-02-12 09:00:00,46.4,44.8,29.94,NE,46,1.0,6.0,94,0.01,,SKC,0.02,VWS V14.01,2013-02-12 15:00:00,
2013-02-12 09:03:00,46.4,44.8,29.94,NNE,30,4.0,4.0,94,0.00,,SKC,0.02,VWS V14.01,2013-02-12 15:03:00,
2013-02-12 09:09:00,46.3,44.7,29.94,NNE,30,3.0,6.0,94,0.00,,SKC,0.02,VWS V14.01,2013-02-12 15:09:00,
2013-02-12 09:15:00,46.4,44.8,29.94,NNE,28,3.0,6.0,94,0.00,,SKC,0.02,VWS V14.01,2013-02-12 15:15:00,
2013-02-12 09:21:00,46.3,44.7,29.94,ENE,57,2.0,6.0,94,0.00,,SKC,0.02,VWS V14.01,2013-02-12 15:21:00,
2013-02-12 09:27:00,46.3,44.7,29.95,North,350,1.0,6.0,94,0.00,,SKC,0.02,VWS V14.01,2013-02-12 15:27:00,
2013-02-12 09:30:00,46.4,44.8,29.99,NNE,13,1.0,6.0,94,0.00,,SKC,0.02,VWS V14.01,2013-02-12 15:30:00,
2013-02-12 09:33:00,46.4,44.8,29.98,North,355,1.0,5.0,94,0.00,,SKC,0.02,VWS V14.01,2013-02-12 15:33:00,
2013-02-12 09:39:00,46.5,44.9,29.97,NE,38,1.0,5.0,94,0.00,,SKC,0.02,VWS V14.01,2013-02-12 15:39:00,
2013-02-12 09:45:00,46.6,45.0,29.97,NW,308,0.0,5.0,94,0.00,,SKC,0.02,VWS V14.01,2013-02-12 15:45:00,
2013-02-12 09:51:00,46.7,45.1,29.96,WNW,294,1.0,5.0,94,0.00,,SKC,0.02,VWS V14.01,2013-02-12 15:51:00,
2013-02-12 09:57:00,46.7,45.1,29.98,NNW,330,2.0,5.0,94,0.00,,SKC,0.02,VWS V14.01,2013-02-12 15:57:00,
2013-02-12 10:00:00,46.6,45.0,29.98,NNE,30,1.0,5.0,94,0.00,,SKC,0.02,VWS V14.01,2013-02-12 16:00:00,
2013-02-12 10:03:00,46.7,45.1,29.99,NNE,14,0.0,2.0,94,0.00,,SKC,0.02,VWS V14.01,2013-02-12 16:03:00,
2013-02-12 10:09:00,46.7,45.1,29.99,NNE,14,1.0,2.0,94,0.00,,SKC,0.02,VWS V14.01,2013-02-12 16:09:00,
2013-02-12 10:15:00,46.8,45.5,29.98,North,5,0.0,2.0,95,0.00,,SKC,0.02,VWS V14.01,2013-02-12 16:15:00,
2013-02-12 10:21:00,46.9,45.5,29.99,ENE,62,0.0,2.0,95,0.00,,SKC,0.02,VWS V14.01,2013-02-12 16:21:00,
2013-02-12 10:27:00,46.9,45.5,29.99,NW,310,1.0,3.0,95,0.00,,SKC,0.02,VWS V14.01,2013-02-12 16:27:00,
2013-02-12 10:30:00,46.9,45.5,29.99,NNE,32,3.0,3.0,95,0.00,,SKC,0.02,VWS V14.01,2013-02-12 16:30:00,
2013-02-12 10:33:00,46.9,45.5,29.99,NE,44,2.0,3.0,95,0.01,,SKC,0.03,VWS V14.01,2013-02-12 16:33:00,
2013-02-12 10:39:00,46.8,45.5,29.98,NE,40,2.0,4.0,95,0.01,,SKC,0.03,VWS V14.01,2013-02-12 16:39:00,
2013-02-12 10:45:00,46.9,45.5,29.98,ENE,75,2.0,4.0,95,0.01,,SKC,0.03,VWS V14.01,2013-02-12 16:45:00,
2013-02-12 10:51:00,47.1,45.7,29.98,NE,51,1.0,4.0,95,0.01,,SKC,0.03,VWS V14.01,2013-02-12 16:51:00,
2013-02-12 10:57:00,47.2,45.8,29.98,NE,51,0.0,4.0,95,0.01,,SKC,0.03,VWS V14.01,2013-02-12 16:57:00,
2013-02-12 11:00:00,47.2,45.8,29.98,NNE,30,2.0,4.0,95,0.01,,SKC,0.03,VWS V14.01,2013-02-12 17:00:00,
2013-02-12 11:03:00,47.2,45.8,29.98,NNE,31,3.0,4.0,95,0.01,,SKC,0.03,VWS V14.01,2013-02-12 17:03:00,
2013-02-12 11:09:00,47.1,45.7,29.98,NNE,24,2.0,4.0,95,0.01,,SKC,0.03,VWS V14.01,2013-02-12 17:09:00,
2013-02-12 11:15:00,47.0,45.7,29.98,ENE,77,2.0,4.0,95,0.01,,SKC,0.03,VWS V14.01,2013-02-12 17:15:00,
2013-02-12 11:22:00,47.2,45.8,29.97,NE,44,2.0,5.0,95,0.01,,SKC,0.03,VWS V14.01,2013-02-12 17:22:00,
2013-02-12 11:28:00,47.3,45.9,29.97,East,84,2.0,6.0,95,0.01,,SKC,0.03,VWS V14.01,2013-02-12 17:28:00,
2013-02-12 11:30:00,47.4,46.0,29.97,NNE,25,3.0,6.0,95,0.01,,SKC,0.03,VWS V14.01,2013-02-12 17:30:00,
2013-02-12 11:34:00,47.4,46.0,29.97,ENE,58,2.0,5.0,95,0.01,,SKC,0.03,VWS V14.01,2013-02-12 17:34:00,
2013-02-12 11:40:00,47.3,45.9,29.97,NNE,30,1.0,5.0,95,0.01,,SKC,0.03,VWS V14.01,2013-02-12 17:40:00,
2013-02-12 11:46:00,47.3,45.9,29.97,NE,40,1.0,5.0,95,0.01,,SKC,0.03,VWS V14.01,2013-02-12 17:46:00,
2013-02-12 11:52:00,47.2,45.8,29.96,NNW,340,0.0,5.0,95,0.01,,SKC,0.03,VWS V14.01,2013-02-12 17:52:00,
2013-02-12 11:58:00,47.2,45.8,29.96,NE,34,2.0,5.0,95,0.01,,SKC,0.03,VWS V14.01,2013-02-12 17:58:00,
2013-02-12 12:00:00,47.2,45.8,29.96,NE,53,2.0,5.0,95,0.01,,SKC,0.03,VWS V14.01,2013-02-12 18:00:00,
2013-02-12 12:04:00,47.4,46.0,29.96,NNE,28,0.0,4.0,95,0.00,,SKC,0.03,VWS V14.01,2013-02-12 18:04:00,
2013-02-12 12:10:00,47.6,46.2,29.95,East,84,2.0,5.0,95,0.00,,SKC,0.03,VWS V14.01,2013-02-12 18:10:00,
2013-02-12 12:16:00,47.7,46.3,29.95,NE,34,2.0,5.0,95,0.00,,SKC,0.03,VWS V14.01,2013-02-12 18:16:00,
2013-02-12 12:22:00,47.7,46.3,29.95,ENE,61,3.0,6.0,95,0.00,,SKC,0.03,VWS V14.01,2013-02-12 18:22:00,
2013-02-12 12:28:00,47.5,46.1,29.95,NNE,25,3.0,6.0,95,0.00,,SKC,0.03,VWS V14.01,2013-02-12 18:28:00,
2013-02-12 12:30:00,47.5,46.1,29.95,NNE,21,2.0,6.0,95,0.00,,SKC,0.03,VWS V14.01,2013-02-12 18:30:00,
2013-02-12 12:34:00,47.5,46.1,29.95,North,350,2.0,3.0,95,0.00,,SKC,0.03,VWS V14.01,2013-02-12 18:34:00,
2013-02-12 12:40:00,47.6,46.2,29.95,East,87,3.0,5.0,95,0.00,,SKC,0.03,VWS V14.01,2013-02-12 18:40:00,
2013-02-12 12:46:00,47.6,46.2,29.94,NNE,17,3.0,5.0,95,0.00,,SKC,0.03,VWS V14.01,2013-02-12 18:46:00,
2013-02-12 12:52:00,47.6,46.0,29.94,North,9,5.0,6.0,94,0.00,,SKC,0.03,VWS V14.01,2013-02-12 18:52:00,
2013-02-12 12:58:00,47.7,46.1,29.93,NE,51,2.0,6.0,94,0.00,,SKC,0.03,VWS V14.01,2013-02-12 18:58:00,
2013-02-12 13:00:00,47.8,46.2,29.93,NE,49,2.0,6.0,94,0.01,,SKC,0.04,VWS V14.01,2013-02-12 19:00:00,
2013-02-12 13:04:00,47.8,46.2,29.93,NE,34,3.0,5.0,94,0.01,,SKC,0.04,VWS V14.01,2013-02-12 19:04:00,
2013-02-12 13:10:00,47.8,46.2,29.93,East,88,2.0,5.0,94,0.01,,SKC,0.04,VWS V14.01,2013-02-12 19:10:00,
2013-02-12 13:16:00,47.8,46.2,29.93,NNE,25,3.0,6.0,94,0.01,,SKC,0.04,VWS V14.01,2013-02-12 19:16:00,
2013-02-12 13:22:00,47.8,46.2,29.93,NNE,26,1.0,6.0,94,0.01,,SKC,0.04,VWS V14.01,2013-02-12 19:22:00,
2013-02-12 13:28:00,47.8,46.2,29.93,NNE,25,2.0,6.0,94,0.01,,SKC,0.04,VWS V14.01,2013-02-12 19:28:00,
2013-02-12 13:30:00,47.7,46.1,29.93,NE,49,2.0,6.0,94,0.01,,SKC,0.04,VWS V14.01,2013-02-12 19:30:00,
2013-02-12 13:34:00,47.8,46.2,29.92,ENE,76,2.0,3.0,94,0.01,,SKC,0.04,VWS V14.01,2013-02-12 19:34:00,
2013-02-12 13:40:00,47.9,46.3,29.92,NNE,32,2.0,3.0,94,0.01,,SKC,0.04,VWS V14.01,2013-02-12 19:40:00,
2013-02-12 14:00:00,47.8,46.2,29.91,NNE,22,2.0,5.0,94,0.01,,SKC,0.04,VWS V14.01,2013-02-12 20:00:00,
2013-02-12 14:30:00,48.0,46.1,29.91,North,0,1.0,5.0,93,0.00,,SKC,0.04,VWS V14.01,2013-02-12 20:30:00,
2013-02-12 15:00:00,48.6,46.7,29.89,NNE,22,1.0,3.0,93,0.00,,SKC,0.04,VWS V14.01,2013-02-12 21:00:00,
2013-02-12 15:30:00,48.6,46.7,29.90,East,90,1.0,5.0,93,0.01,,SKC,0.05,VWS V14.01,2013-02-12 21:30:00,
2013-02-12 16:00:00,48.4,46.5,29.91,NNW,338,1.0,4.0,93,0.01,,SKC,0.05,VWS V14.01,2013-02-12 22:00:00,
2013-02-12 16:30:00,48.2,46.3,29.92,NW,315,1.0,4.0,93,0.01,,SKC,0.05,VWS V14.01,2013-02-12 22:30:00,
2013-02-12 17:00:00,48.0,46.1,29.92,NW,315,1.0,5.0,93,0.00,,SKC,0.05,VWS V14.01,2013-02-12 23:00:00,
2013-02-12 17:30:00,47.9,46.3,29.92,NNW,338,1.0,3.0,94,0.00,,SKC,0.05,VWS V14.01,2013-02-12 23:30:00,
2013-02-12 18:00:00,47.8,46.2,29.93,NW,315,1.0,4.0,94,0.01,,SKC,0.06,VWS V14.01,2013-02-13 00:00:00,
2013-02-12 18:30:00,47.2,45.6,29.94,NW,315,1.0,4.0,94,0.01,,SKC,0.06,VWS V14.01,2013-02-13 00:30:00,
2013-02-12 19:00:00,47.1,45.5,29.96,NW,315,1.0,6.0,94,0.01,,SKC,0.06,VWS V14.01,2013-02-13 01:00:00,
2013-02-12 19:30:00,46.9,45.0,29.98,NW,315,2.0,5.0,93,0.00,,SKC,0.06,VWS V14.01,2013-02-13 01:30:00,
2013-02-12 20:00:00,46.8,44.9,29.99,NW,315,1.0,6.0,93,0.00,,SKC,0.06,VWS V14.01,2013-02-13 02:00:00,
2013-02-12 20:30:00,46.1,43.9,30.00,NW,315,2.0,8.0,92,0.01,,SKC,0.07,VWS V14.01,2013-02-13 02:30:00,
2013-02-12 21:00:00,46.0,44.1,30.00,NW,315,1.0,5.0,93,0.01,,SKC,0.07,VWS V14.01,2013-02-13 03:00:00,
2013-02-12 21:30:00,45.7,43.5,30.01,NNW,338,2.0,6.0,92,0.01,,SKC,0.07,VWS V14.01,2013-02-13 03:30:00,
2013-02-12 22:00:00,45.5,43.3,30.02,NNW,338,2.0,7.0,92,0.00,,SKC,0.07,VWS V14.01,2013-02-13 04:00:00,
2013-02-12 22:30:00,45.0,42.8,30.03,NW,315,2.0,6.0,92,0.00,,SKC,0.07,VWS V14.01,2013-02-13 04:30:00,
2013-02-12 23:00:00,44.2,41.7,30.05,NNW,338,3.0,9.0,91,0.00,,SKC,0.07,VWS V14.01,2013-02-13 05:00:00,
2013-02-12 23:30:00,44.0,41.5,30.05,NW,315,3.0,10.0,91,0.01,,SKC,0.08,VWS V14.01,2013-02-13 05:30:00,